Location: Unspecified
(50.7693°N, 0.0000°E)
Time: 15:51:09
(UTC+00:00)

Transit 4A - Pass Details

Date: 30 June 2019
Orbit: 863 x 981 km, 66.8° (Epoch: 22 August)

Event Time Altitude Azimuth Distance (km) Brightness Sun altitude
Rises 10:18:49 0° 291° (WNW) 3,682 10.7 55.7°
Reaches altitude 10° 10:22:15 10° 309° (NW) 2,741 10.1 56.1°
Maximum altitude 10:26:43 19° 354° (N) 2,145 9.8 56.6°
Drops below altitude 10° 10:31:12 10° 38° (NE) 2,737 10.4 57.1°
Sets 10:34:37 0° 56° (NE) 3,674 11.1 57.4°
